Location: M?digepalle
(16.1753°N, 80.3496°E)
Time: 09:00:40
(UTC+00:00)

Cosmos 2026 Rocket - Pass Details

Date: 29 October 2020
Orbit: 938 x 1002 km, 82.9° (Epoch: 27 November)

Event Time Altitude Azimuth Distance (km) Brightness Sun altitude
Rises 23:18:46 0° 189° (S) 3,691 7.0 -18.8°
Reaches altitude 10° 23:21:17 10° 191° (SSW) 2,750 6.3 -18.2°
Maximum altitude 23:27:34 69° 274° (W) 1,061 4.0 -16.7°
Drops below altitude 10° 23:33:54 10° 357° (N) 2,768 6.2 -15.2°
Sets 23:36:28 0° 0° (N) 3,718 6.9 -14.6°
